Location: Unspecified
(0.0000°N, 0.0000°E)
Time: 17:52:02
(UTC+00:00)

STARLINK 1020 - Pass Details

Date: 17 January 2020
Orbit: 437 x 439 km, 53.0° (Epoch: 17 January)

Event Time Altitude Azimuth Distance (km) Brightness Sun altitude
Rises 05:30:43 0° 213° (SSW) 2,411 6.8 -9.1°
Reaches altitude 10° 05:32:50 10° 212° (SSW) 1,541 5.8 -8.6°
Maximum altitude 05:36:18 84° 124° (ESE) 441 3.2 -7.8°
Drops below altitude 10° 05:39:44 10° 36° (NE) 1,533 6.1 -7.0°
Sets 05:41:50 0° 35° (NE) 2,398 7.1 -6.5°
